Time,TemperatureF,DewpointF,PressureIn,WindDirection,WindDirectionDegrees,WindSpeedMPH,WindSpeedGustMPH,Humidity,HourlyPrecipIn,Conditions,Clouds,dailyrainin,SoftwareType,DateUTC
2013-06-12 00:05:00,57.0,47.3,29.79,North,-999,0.0,0.0,70,0.00,,,-99.99,FreeWX-Wi 1.01,2013-06-12 07:05:00,
2013-06-12 00:15:00,56.8,47.5,29.79,North,-999,0.0,0.0,71,0.00,,,-99.99,FreeWX-Wi 1.01,2013-06-12 07:15:00,
2013-06-12 00:25:00,56.7,47.3,29.79,North,-999,0.0,0.0,71,0.00,,,-99.99,FreeWX-Wi 1.01,2013-06-12 07:25:00,
2013-06-12 00:35:00,56.7,47.3,29.79,North,-999,0.0,0.0,71,0.00,,,-99.99,FreeWX-Wi 1.01,2013-06-12 07:35:00,
2013-06-12 00:45:00,56.5,47.1,29.79,North,-999,0.0,0.0,71,0.00,,,-99.99,FreeWX-Wi 1.01,2013-06-12 07:45:00,
2013-06-12 00:55:00,56.3,46.9,29.79,North,-999,0.0,0.0,71,0.00,,,-99.99,FreeWX-Wi 1.01,2013-06-12 07:55:00,
2013-06-12 01:05:00,56.3,47.3,29.79,North,-999,0.0,0.0,72,0.00,,,-99.99,FreeWX-Wi 1.01,2013-06-12 08:05:00,
2013-06-12 01:15:00,56.3,47.3,29.79,North,-999,0.0,0.0,72,0.00,,,-99.99,FreeWX-Wi 1.01,2013-06-12 08:15:00,
2013-06-12 01:25:00,56.1,47.3,29.79,North,-999,0.0,0.0,72,0.00,,,-99.99,FreeWX-Wi 1.01,2013-06-12 08:25:00,
2013-06-12 01:35:00,55.9,47.5,29.79,North,-999,0.0,0.0,73,0.00,,,-99.99,FreeWX-Wi 1.01,2013-06-12 08:35:00,
2013-06-12 01:45:00,55.9,47.5,29.79,North,-999,0.0,0.0,73,0.00,,,-99.99,FreeWX-Wi 1.01,2013-06-12 08:45:00,
2013-06-12 01:55:00,55.9,47.8,29.79,North,-999,0.0,0.0,74,0.00,,,-99.99,FreeWX-Wi 1.01,2013-06-12 08:55:00,
2013-06-12 02:05:00,55.8,47.7,29.79,North,-999,0.0,0.0,74,0.00,,,-99.99,FreeWX-Wi 1.01,2013-06-12 09:05:00,
2013-06-12 02:15:00,55.6,47.5,29.79,North,-999,0.0,0.0,74,0.00,,,-99.99,FreeWX-Wi 1.01,2013-06-12 09:15:00,
2013-06-12 02:25:00,55.4,47.7,29.79,North,-999,0.0,0.0,75,0.00,,,-99.99,FreeWX-Wi 1.01,2013-06-12 09:25:00,
2013-06-12 02:35:00,55.4,47.7,29.79,North,-999,0.0,0.0,75,0.00,,,-99.99,FreeWX-Wi 1.01,2013-06-12 09:35:00,
2013-06-12 02:45:00,55.4,47.7,29.79,North,-999,0.0,0.0,75,0.00,,,-99.99,FreeWX-Wi 1.01,2013-06-12 09:45:00,
2013-06-12 02:55:00,55.2,47.8,29.79,North,-999,0.0,0.0,76,0.00,,,-99.99,FreeWX-Wi 1.01,2013-06-12 09:55:00,
2013-06-12 03:05:00,55.0,47.7,29.79,North,-999,0.0,0.0,76,0.00,,,-99.99,FreeWX-Wi 1.01,2013-06-12 10:05:00,
2013-06-12 03:15:00,54.9,47.5,29.79,North,-999,0.0,0.0,76,0.00,,,-99.99,FreeWX-Wi 1.01,2013-06-12 10:15:00,
2013-06-12 03:25:00,54.7,47.3,29.79,North,-999,0.0,0.0,76,0.00,,,-99.99,FreeWX-Wi 1.01,2013-06-12 10:25:00,
2013-06-12 03:35:00,54.5,47.5,29.79,North,-999,0.0,0.0,77,0.00,,,-99.99,FreeWX-Wi 1.01,2013-06-12 10:35:00,
2013-06-12 03:45:00,54.5,47.5,29.79,North,-999,0.0,0.0,77,0.00,,,-99.99,FreeWX-Wi 1.01,2013-06-12 10:45:00,
2013-06-12 03:55:00,54.5,47.5,29.79,North,-999,0.0,0.0,77,0.00,,,-99.99,FreeWX-Wi 1.01,2013-06-12 10:55:00,
2013-06-12 04:05:00,54.5,47.5,29.79,North,-999,0.0,0.0,77,0.00,,,-99.99,FreeWX-Wi 1.01,2013-06-12 11:05:00,
2013-06-12 04:15:00,54.5,47.5,29.79,North,-999,0.0,0.0,77,0.00,,,-99.99,FreeWX-Wi 1.01,2013-06-12 11:15:00,
2013-06-12 04:25:00,54.3,47.7,29.79,North,-999,0.0,0.0,78,0.00,,,-99.99,FreeWX-Wi 1.01,2013-06-12 11:25:00,
2013-06-12 04:35:00,54.3,47.7,29.79,North,-999,0.0,0.0,78,0.00,,,-99.99,FreeWX-Wi 1.01,2013-06-12 11:35:00,
2013-06-12 04:45:00,54.3,47.7,29.79,North,-999,0.0,0.0,78,0.00,,,-99.99,FreeWX-Wi 1.01,2013-06-12 11:45:00,
2013-06-12 04:55:00,54.1,47.5,29.79,North,-999,0.0,2.7,78,0.00,,,-99.99,FreeWX-Wi 1.01,2013-06-12 11:55:00,
2013-06-12 05:05:00,54.3,48.0,29.79,North,-999,0.0,2.7,79,0.00,,,-99.99,FreeWX-Wi 1.01,2013-06-12 12:05:00,
2013-06-12 05:15:00,54.1,47.8,29.79,North,-999,0.0,0.0,79,0.00,,,-99.99,FreeWX-Wi 1.01,2013-06-12 12:15:00,
2013-06-12 06:45:00,54.3,48.6,29.82,North,-999,0.0,0.0,81,0.00,,,-99.99,FreeWX-Wi 1.01,2013-06-12 13:45:00,
2013-06-12 06:55:00,54.7,48.9,29.82,North,-999,0.0,0.0,81,0.00,,,-99.99,FreeWX-Wi 1.01,2013-06-12 13:55:00,
2013-06-12 07:05:00,55.2,49.5,29.82,North,-999,0.0,0.0,81,0.00,,,-99.99,FreeWX-Wi 1.01,2013-06-12 14:05:00,
2013-06-12 07:15:00,55.8,49.6,29.82,North,-999,0.0,0.0,80,0.00,,,-99.99,FreeWX-Wi 1.01,2013-06-12 14:15:00,
2013-06-12 07:25:00,56.1,49.3,29.82,North,-999,0.0,0.0,78,0.00,,,-99.99,FreeWX-Wi 1.01,2013-06-12 14:25:00,
2013-06-12 07:35:00,56.7,49.1,29.82,North,-999,0.0,0.0,76,0.00,,,-99.99,FreeWX-Wi 1.01,2013-06-12 14:35:00,
2013-06-12 07:45:00,57.4,49.5,29.82,North,-999,0.0,3.6,75,0.00,,,-99.99,FreeWX-Wi 1.01,2013-06-12 14:45:00,
2013-06-12 07:55:00,58.8,49.8,29.82,North,-999,0.0,0.0,72,0.00,,,-99.99,FreeWX-Wi 1.01,2013-06-12 14:55:00,
2013-06-12 08:05:00,62.8,53.2,29.85,North,-999,0.0,0.0,71,0.00,,,-99.99,FreeWX-Wi 1.01,2013-06-12 15:05:00,
2013-06-12 08:15:00,65.3,47.7,29.85,North,-999,0.0,3.6,53,0.00,,,-99.99,FreeWX-Wi 1.01,2013-06-12 15:15:00,
2013-06-12 08:25:00,66.2,45.3,29.85,North,-999,0.0,4.9,47,0.00,,,-99.99,FreeWX-Wi 1.01,2013-06-12 15:25:00,
2013-06-12 08:35:00,68.2,44.8,29.85,West,259,1.0,3.6,43,0.00,,,-99.99,FreeWX-Wi 1.01,2013-06-12 15:35:00,
2013-06-12 08:45:00,69.1,43.2,29.85,WSW,252,1.0,5.4,39,0.00,,,-99.99,FreeWX-Wi 1.01,2013-06-12 15:45:00,
2013-06-12 08:55:00,69.6,42.3,29.85,WSW,251,1.0,5.8,37,0.00,,,-99.99,FreeWX-Wi 1.01,2013-06-12 15:55:00,
2013-06-12 09:05:00,70.7,42.4,29.85,North,-999,0.0,4.0,36,0.00,,,-99.99,FreeWX-Wi 1.01,2013-06-12 16:05:00,
2013-06-12 09:15:00,70.7,41.0,29.85,North,-999,0.0,3.6,34,0.00,,,-99.99,FreeWX-Wi 1.01,2013-06-12 16:15:00,
2013-06-12 09:25:00,69.4,41.4,29.85,North,-999,0.0,3.6,36,0.00,,,-99.99,FreeWX-Wi 1.01,2013-06-12 16:25:00,
2013-06-12 09:35:00,68.4,41.0,29.85,North,353,1.0,5.8,37,0.00,,,-99.99,FreeWX-Wi 1.01,2013-06-12 16:35:00,
2013-06-12 09:45:00,67.5,41.0,29.85,NNE,22,1.0,4.9,38,0.00,,,-99.99,FreeWX-Wi 1.01,2013-06-12 16:45:00,
2013-06-12 09:55:00,67.1,41.4,29.85,WNW,284,2.0,4.9,39,0.00,,,-99.99,FreeWX-Wi 1.01,2013-06-12 16:55:00,
2013-06-12 10:05:00,67.3,40.1,29.85,WSW,250,2.0,4.9,37,0.00,,,-99.99,FreeWX-Wi 1.01,2013-06-12 17:05:00,
2013-06-12 10:15:00,67.1,40.6,29.85,WSW,249,2.0,4.9,38,0.00,,,-99.99,FreeWX-Wi 1.01,2013-06-12 17:15:00,
2013-06-12 10:25:00,66.9,40.5,29.85,West,267,2.0,6.3,38,0.00,,,-99.99,FreeWX-Wi 1.01,2013-06-12 17:25:00,
2013-06-12 10:35:00,67.3,41.5,29.85,WNW,292,2.0,6.3,39,0.00,,,-99.99,FreeWX-Wi 1.01,2013-06-12 17:35:00,
2013-06-12 10:45:00,67.8,42.6,29.85,North,357,2.0,5.8,40,0.00,,,-99.99,FreeWX-Wi 1.01,2013-06-12 17:45:00,
2013-06-12 10:55:00,67.5,42.3,29.85,NNE,15,2.0,6.3,40,0.00,,,-99.99,FreeWX-Wi 1.01,2013-06-12 17:55:00,
2013-06-12 11:05:00,67.8,42.6,29.85,NNE,28,3.0,6.3,40,0.00,,,-99.99,FreeWX-Wi 1.01,2013-06-12 18:05:00,
2013-06-12 11:15:00,68.4,41.7,29.85,NNE,22,3.0,6.3,38,0.00,,,-99.99,FreeWX-Wi 1.01,2013-06-12 18:15:00,
2013-06-12 11:25:00,69.3,42.6,29.85,NNE,13,3.0,4.9,38,0.00,,,-99.99,FreeWX-Wi 1.01,2013-06-12 18:25:00,
2013-06-12 11:35:00,70.0,41.7,29.85,North,2,3.0,6.3,36,0.00,,,-99.99,FreeWX-Wi 1.01,2013-06-12 18:35:00,
2013-06-12 11:45:00,70.7,41.7,29.85,North,356,3.0,6.3,35,0.00,,,-99.99,FreeWX-Wi 1.01,2013-06-12 18:45:00,
2013-06-12 11:55:00,70.5,41.5,29.85,North,359,3.0,8.7,35,0.00,,,-99.99,FreeWX-Wi 1.01,2013-06-12 18:55:00,
2013-06-12 12:05:00,70.7,41.7,29.85,NNW,342,3.0,7.2,35,0.00,,,-99.99,FreeWX-Wi 1.01,2013-06-12 19:05:00,
2013-06-12 12:15:00,70.0,41.7,29.85,NNW,333,4.0,8.7,36,0.00,,,-99.99,FreeWX-Wi 1.01,2013-06-12 19:15:00,
2013-06-12 12:25:00,71.1,42.1,29.85,NNW,329,4.0,8.1,35,0.00,,,-99.99,FreeWX-Wi 1.01,2013-06-12 19:25:00,
2013-06-12 12:35:00,71.1,42.1,29.85,NNW,329,3.0,8.3,35,0.00,,,-99.99,FreeWX-Wi 1.01,2013-06-12 19:35:00,
2013-06-12 12:45:00,71.8,41.9,29.85,WNW,295,3.0,6.3,34,0.00,,,-99.99,FreeWX-Wi 1.01,2013-06-12 19:45:00,
2013-06-12 12:55:00,72.0,42.1,29.85,NW,307,3.0,10.1,34,0.00,,,-99.99,FreeWX-Wi 1.01,2013-06-12 19:55:00,
2013-06-12 13:05:00,70.7,42.4,29.85,NW,306,4.0,10.5,36,0.00,,,-99.99,FreeWX-Wi 1.01,2013-06-12 20:05:00,
2013-06-12 13:15:00,70.3,42.8,29.85,NNW,336,4.0,9.6,37,0.00,,,-99.99,FreeWX-Wi 1.01,2013-06-12 20:15:00,
2013-06-12 13:25:00,70.9,43.3,29.85,NNW,340,4.0,8.1,37,0.00,,,-99.99,FreeWX-Wi 1.01,2013-06-12 20:25:00,
2013-06-12 13:35:00,70.7,43.2,29.85,NNW,335,4.0,10.5,37,0.00,,,-99.99,FreeWX-Wi 1.01,2013-06-12 20:35:00,
2013-06-12 13:45:00,71.1,43.5,29.85,NW,323,4.0,8.1,37,0.00,,,-99.99,FreeWX-Wi 1.01,2013-06-12 20:45:00,
2013-06-12 13:55:00,72.0,43.5,29.85,NNW,332,4.0,8.3,36,0.00,,,-99.99,FreeWX-Wi 1.01,2013-06-12 20:55:00,
2013-06-12 14:05:00,71.6,42.4,29.85,North,355,4.0,9.6,35,0.00,,,-99.99,FreeWX-Wi 1.01,2013-06-12 21:05:00,
2013-06-12 14:15:00,72.1,42.3,29.85,NNW,335,4.0,11.0,34,0.00,,,-99.99,FreeWX-Wi 1.01,2013-06-12 21:15:00,
2013-06-12 14:25:00,71.1,42.8,29.85,NW,319,4.0,11.0,36,0.00,,,-99.99,FreeWX-Wi 1.01,2013-06-12 21:25:00,
2013-06-12 14:35:00,70.3,42.8,29.85,NW,319,5.0,12.8,37,0.00,,,-99.99,FreeWX-Wi 1.01,2013-06-12 21:35:00,
2013-06-12 14:45:00,70.3,42.8,29.85,NW,325,6.0,10.5,37,0.00,,,-99.99,FreeWX-Wi 1.01,2013-06-12 21:45:00,
2013-06-12 14:55:00,71.2,43.0,29.85,NNW,337,6.0,8.7,36,0.00,,,-99.99,FreeWX-Wi 1.01,2013-06-12 21:55:00,
2013-06-12 15:05:00,72.3,42.4,29.85,NNW,346,5.0,10.1,34,0.00,,,-99.99,FreeWX-Wi 1.01,2013-06-12 22:05:00,
2013-06-12 15:15:00,72.0,42.1,29.85,North,359,5.0,10.1,34,0.00,,,-99.99,FreeWX-Wi 1.01,2013-06-12 22:15:00,
2013-06-12 15:25:00,72.7,41.9,29.85,NNE,16,5.0,9.6,33,0.00,,,-99.99,FreeWX-Wi 1.01,2013-06-12 22:25:00,
2013-06-12 15:35:00,72.1,41.4,29.85,NNE,23,5.0,10.5,33,0.00,,,-99.99,FreeWX-Wi 1.01,2013-06-12 22:35:00,
2013-06-12 15:45:00,71.1,41.2,29.85,North,9,6.0,10.5,34,0.00,,,-99.99,FreeWX-Wi 1.01,2013-06-12 22:45:00,
2013-06-12 15:55:00,70.0,41.0,29.82,North,349,6.0,11.9,35,0.00,,,-99.99,FreeWX-Wi 1.01,2013-06-12 22:55:00,
2013-06-12 16:05:00,68.9,41.5,29.85,NNW,340,7.0,13.2,37,0.00,,,-99.99,FreeWX-Wi 1.01,2013-06-12 23:05:00,
2013-06-12 16:15:00,69.1,41.7,29.85,NNW,342,6.0,12.3,37,0.00,,,-99.99,FreeWX-Wi 1.01,2013-06-12 23:15:00,
2013-06-12 16:25:00,68.5,41.2,29.82,NNW,348,6.0,10.5,37,0.00,,,-99.99,FreeWX-Wi 1.01,2013-06-12 23:25:00,
2013-06-12 16:35:00,67.8,41.9,29.85,NNW,345,6.0,13.2,39,0.00,,,-99.99,FreeWX-Wi 1.01,2013-06-12 23:35:00,
2013-06-12 16:45:00,67.8,42.6,29.85,NNW,342,7.0,12.8,40,0.00,,,-99.99,FreeWX-Wi 1.01,2013-06-12 23:45:00,
2013-06-12 16:55:00,67.5,43.0,29.85,NNW,337,7.0,16.3,41,0.00,,,-99.99,FreeWX-Wi 1.01,2013-06-12 23:55:00,
2013-06-12 17:05:00,66.9,42.4,29.85,NNW,341,7.0,13.2,41,0.00,,,-99.99,FreeWX-Wi 1.01,2013-06-13 00:05:00,
2013-06-12 17:15:00,66.2,43.0,29.85,NNW,341,7.0,13.2,43,0.00,,,-99.99,FreeWX-Wi 1.01,2013-06-13 00:15:00,
2013-06-12 17:25:00,65.8,43.3,29.85,NNW,340,7.0,12.8,44,0.00,,,-99.99,FreeWX-Wi 1.01,2013-06-13 00:25:00,
2013-06-12 17:35:00,66.0,42.8,29.85,NNW,340,6.0,12.3,43,0.00,,,-99.99,FreeWX-Wi 1.01,2013-06-13 00:35:00,
2013-06-12 17:45:00,65.8,42.8,29.85,NNW,338,6.0,11.0,43,0.00,,,-99.99,FreeWX-Wi 1.01,2013-06-13 00:45:00,
2013-06-12 17:55:00,65.8,42.8,29.82,NNW,346,5.0,11.9,43,0.00,,,-99.99,FreeWX-Wi 1.01,2013-06-13 00:55:00,
2013-06-12 18:05:00,65.1,42.6,29.82,NNW,344,5.0,8.7,44,0.00,,,-99.99,FreeWX-Wi 1.01,2013-06-13 01:05:00,
2013-06-12 18:15:00,64.8,42.3,29.82,NNW,344,5.0,12.3,44,0.00,,,-99.99,FreeWX-Wi 1.01,2013-06-13 01:15:00,
2013-06-12 18:25:00,63.9,42.6,29.82,NNW,340,5.0,10.5,46,0.00,,,-99.99,FreeWX-Wi 1.01,2013-06-13 01:25:00,
2013-06-12 18:35:00,63.5,43.0,29.82,NNW,342,5.0,10.1,47,0.00,,,-99.99,FreeWX-Wi 1.01,2013-06-13 01:35:00,
2013-06-12 18:45:00,62.8,42.8,29.82,NNW,341,5.0,12.8,48,0.00,,,-99.99,FreeWX-Wi 1.01,2013-06-13 01:45:00,
2013-06-12 18:56:00,62.6,43.2,29.82,North,349,5.0,11.0,49,0.00,,,-99.99,FreeWX-Wi 1.01,2013-06-13 01:56:00,
2013-06-12 19:06:00,62.2,43.3,29.82,NNW,344,5.0,8.3,50,0.00,,,-99.99,FreeWX-Wi 1.01,2013-06-13 02:06:00,
2013-06-12 19:16:00,61.7,43.3,29.82,NNW,338,4.0,9.6,51,0.00,,,-99.99,FreeWX-Wi 1.01,2013-06-13 02:16:00,
2013-06-12 19:26:00,61.3,43.5,29.82,NNW,329,5.0,8.3,52,0.00,,,-99.99,FreeWX-Wi 1.01,2013-06-13 02:26:00,
2013-06-12 19:36:00,61.0,43.7,29.82,NNW,335,5.0,10.5,53,0.00,,,-99.99,FreeWX-Wi 1.01,2013-06-13 02:36:00,
2013-06-12 19:46:00,60.4,44.2,29.82,NNW,338,6.0,10.5,55,0.00,,,-99.99,FreeWX-Wi 1.01,2013-06-13 02:46:00,
2013-06-12 19:56:00,60.1,44.8,29.85,NNW,339,6.0,10.5,57,0.00,,,-99.99,FreeWX-Wi 1.01,2013-06-13 02:56:00,
2013-06-12 20:06:00,59.5,44.8,29.85,NNW,339,6.0,10.5,58,0.00,,,-99.99,FreeWX-Wi 1.01,2013-06-13 03:06:00,
2013-06-12 20:16:00,59.2,44.8,29.85,NNW,337,5.0,11.0,59,0.00,,,-99.99,FreeWX-Wi 1.01,2013-06-13 03:16:00,
2013-06-12 20:26:00,59.0,45.1,29.85,NNW,341,5.0,8.3,60,0.00,,,-99.99,FreeWX-Wi 1.01,2013-06-13 03:26:00,
2013-06-12 20:36:00,58.8,45.3,29.85,North,352,4.0,8.1,61,0.00,,,-99.99,FreeWX-Wi 1.01,2013-06-13 03:36:00,
2013-06-12 20:46:00,58.5,45.5,29.85,North,1,4.0,8.3,62,0.00,,,-99.99,FreeWX-Wi 1.01,2013-06-13 03:46:00,
2013-06-12 20:56:00,58.1,46.0,29.82,North,354,3.0,6.3,64,0.00,,,-99.99,FreeWX-Wi 1.01,2013-06-13 03:56:00,
2013-06-12 21:06:00,57.7,46.4,29.85,NNW,343,3.0,8.3,66,0.00,,,-99.99,FreeWX-Wi 1.01,2013-06-13 04:06:00,
2013-06-12 21:16:00,57.6,46.2,29.85,NNW,333,3.0,8.7,66,0.00,,,-99.99,FreeWX-Wi 1.01,2013-06-13 04:16:00,
2013-06-12 21:26:00,57.4,46.6,29.85,NNW,332,4.0,8.7,67,0.00,,,-99.99,FreeWX-Wi 1.01,2013-06-13 04:26:00,
2013-06-12 21:36:00,57.2,46.4,29.85,NNW,333,4.0,8.3,67,0.00,,,-99.99,FreeWX-Wi 1.01,2013-06-13 04:36:00,
2013-06-12 21:46:00,57.2,46.8,29.85,NNW,332,4.0,8.3,68,0.00,,,-99.99,FreeWX-Wi 1.01,2013-06-13 04:46:00,
2013-06-12 21:56:00,57.2,46.8,29.85,NNW,329,3.0,6.3,68,0.00,,,-99.99,FreeWX-Wi 1.01,2013-06-13 04:56:00,
2013-06-12 22:06:00,57.0,46.9,29.88,NNW,330,3.0,8.1,69,0.00,,,-99.99,FreeWX-Wi 1.01,2013-06-13 05:06:00,
2013-06-12 22:16:00,56.8,46.8,29.88,NNW,333,2.0,7.6,69,0.00,,,-99.99,FreeWX-Wi 1.01,2013-06-13 05:16:00,
2013-06-12 22:26:00,56.7,47.3,29.88,NNW,332,3.0,8.7,71,0.00,,,-99.99,FreeWX-Wi 1.01,2013-06-13 05:26:00,
2013-06-12 22:36:00,56.5,47.1,29.88,NNW,333,3.0,6.3,71,0.00,,,-99.99,FreeWX-Wi 1.01,2013-06-13 05:36:00,
2013-06-12 22:46:00,56.3,46.9,29.88,NNW,340,2.0,5.4,71,0.00,,,-99.99,FreeWX-Wi 1.01,2013-06-13 05:46:00,
2013-06-12 22:56:00,56.3,46.9,29.88,SSW,200,1.0,6.3,71,0.00,,,-99.99,FreeWX-Wi 1.01,2013-06-13 05:56:00,
2013-06-12 23:06:00,56.1,47.3,29.88,SSE,149,1.0,5.8,72,0.00,,,-99.99,FreeWX-Wi 1.01,2013-06-13 06:06:00,
2013-06-12 23:16:00,55.9,47.1,29.88,ESE,114,1.0,4.9,72,0.00,,,-99.99,FreeWX-Wi 1.01,2013-06-13 06:16:00,
2013-06-12 23:26:00,55.8,47.3,29.88,ENE,65,1.0,8.3,73,0.00,,,-99.99,FreeWX-Wi 1.01,2013-06-13 06:26:00,
2013-06-12 23:36:00,55.4,47.3,29.88,NNW,340,2.0,7.6,74,0.00,,,-99.99,FreeWX-Wi 1.01,2013-06-13 06:36:00,
2013-06-12 23:46:00,55.2,47.5,29.88,NNW,335,2.0,6.7,75,0.00,,,-99.99,FreeWX-Wi 1.01,2013-06-13 06:46:00,
2013-06-12 23:56:00,55.0,47.3,29.88,NNW,327,3.0,7.2,75,0.00,,,-99.99,FreeWX-Wi 1.01,2013-06-13 06:56:00,